Location: N�rnberg
(49.4471°N, 11.0632°E)
Time: 22:25:10
(UTC+02:00)

VELOX 1 - Pass Details

Date: 27 April 2026
Orbit: 569 x 580 km, 98.3° (Epoch: 13 May)

Event Time Altitude Azimuth Distance (km) Brightness Sun altitude
Rises 01:11:42 0° 9° (N) 2,786 ? -26.8°
Reaches altitude 10° 01:13:54 10° 4° (N) 1,884 ? -26.8°
Enters shadow 01:17:12 43° 320° (NW) 807 ? -26.8°
